TimeEST,TemperatureF,Dew PointF,Humidity,Sea Level PressureIn,VisibilityMPH,Wind Direction,Wind SpeedMPH,Gust SpeedMPH,PrecipitationIn,Events,Conditions,WindDirDegrees,DateUTC
12:53 AM,34.0,28.0,79,29.69,7.0,WSW,15.0,21.9,0.00,Snow,Light Snow,250,2013-02-28 05:53:00
1:24 AM,33.8,28.4,81,29.68,9.0,West,13.8,-,0.00,Snow,Light Snow,260,2013-02-28 06:24:00
1:53 AM,33.1,28.9,85,29.70,10.0,West,15.0,-,0.00,,Overcast,260,2013-02-28 06:53:00
2:39 AM,33.8,28.4,81,29.68,9.0,West,11.5,-,N/A,,Overcast,260,2013-02-28 07:39:00
2:53 AM,33.1,28.9,85,29.70,9.0,WSW,13.8,-,N/A,,Overcast,250,2013-02-28 07:53:00
3:53 AM,33.1,30.0,89,29.69,8.0,West,13.8,-,N/A,,Overcast,260,2013-02-28 08:53:00
4:45 AM,33.8,30.2,87,29.68,2.5,West,13.8,-,0.00,Snow,Light Snow,260,2013-02-28 09:45:00
4:53 AM,33.1,30.0,89,29.70,2.5,West,12.7,-,0.00,Snow,Light Snow,260,2013-02-28 09:53:00
5:53 AM,34.0,30.0,85,29.72,4.0,West,12.7,-,0.00,Snow,Light Snow,260,2013-02-28 10:53:00
6:10 AM,33.8,30.2,87,29.70,2.5,West,12.7,-,0.00,Snow,Light Snow,270,2013-02-28 11:10:00
6:30 AM,33.8,30.2,87,29.71,1.8,West,15.0,-,0.00,Snow,Light Snow,270,2013-02-28 11:30:00
6:53 AM,33.1,30.0,89,29.74,2.0,West,13.8,-,0.00,Snow,Light Snow,270,2013-02-28 11:53:00
7:48 AM,33.8,30.2,87,29.73,1.5,West,13.8,-,0.00,Snow,Light Snow,270,2013-02-28 12:48:00
7:53 AM,33.1,30.0,89,29.75,1.5,West,13.8,-,0.00,Snow,Light Snow,270,2013-02-28 12:53:00
8:24 AM,33.8,30.2,87,29.74,2.5,West,11.5,-,0.00,Snow,Light Snow,270,2013-02-28 13:24:00
8:33 AM,33.8,30.2,87,29.74,4.0,West,11.5,-,0.00,Snow,Light Snow,270,2013-02-28 13:33:00
8:53 AM,34.0,30.0,85,29.78,5.0,West,10.4,-,0.00,,Overcast,270,2013-02-28 13:53:00
9:53 AM,34.0,30.9,89,29.79,5.0,West,11.5,-,0.00,,Overcast,280,2013-02-28 14:53:00
10:53 AM,35.1,30.9,85,29.81,9.0,WNW,11.5,-,N/A,,Overcast,290,2013-02-28 15:53:00
11:42 AM,35.6,30.2,81,29.81,10.0,WNW,13.8,-,N/A,,Overcast,290,2013-02-28 16:42:00
11:53 AM,36.0,32.0,86,29.83,10.0,WNW,13.8,-,N/A,,Overcast,300,2013-02-28 16:53:00
12:53 PM,37.0,32.0,82,29.84,10.0,WNW,13.8,-,N/A,,Overcast,290,2013-02-28 17:53:00
1:53 PM,37.9,32.0,79,29.84,10.0,WNW,11.5,-,N/A,,Overcast,300,2013-02-28 18:53:00
2:53 PM,37.9,32.0,79,29.84,10.0,WNW,11.5,-,N/A,,Overcast,300,2013-02-28 19:53:00
4:53 PM,39.0,32.0,76,29.88,10.0,WNW,8.1,-,N/A,,Overcast,300,2013-02-28 21:53:00
5:53 PM,37.9,32.0,79,29.91,10.0,WNW,6.9,-,N/A,,Overcast,300,2013-02-28 22:53:00
6:29 PM,37.4,32.0,81,29.91,10.0,West,8.1,-,0.00,Rain,Light Rain,280,2013-02-28 23:29:00
6:53 PM,36.0,32.0,86,29.93,6.0,WNW,10.4,-,0.00,Rain,Light Rain,290,2013-02-28 23:53:00
7:01 PM,37.4,33.8,87,29.91,10.0,WNW,9.2,-,0.00,,Overcast,300,2013-03-01 00:01:00
7:11 PM,35.6,33.8,93,29.92,10.0,WNW,6.9,-,0.00,,Overcast,300,2013-03-01 00:11:00
7:22 PM,37.4,33.8,87,29.92,10.0,WNW,6.9,-,0.00,,Overcast,300,2013-03-01 00:22:00
7:53 PM,36.0,32.0,86,29.95,6.0,WNW,9.2,-,0.00,Rain,Light Rain,300,2013-03-01 00:53:00
8:21 PM,37.4,32.0,81,29.93,10.0,NW,13.8,-,0.00,,Overcast,320,2013-03-01 01:21:00
8:43 PM,35.6,32.0,87,29.93,10.0,NNW,10.4,-,0.00,Rain,Light Rain,340,2013-03-01 01:43:00
8:53 PM,36.0,32.0,86,29.95,10.0,NW,9.2,-,0.00,,Overcast,310,2013-03-01 01:53:00
9:14 PM,35.6,32.0,87,29.94,10.0,NW,11.5,-,N/A,,Overcast,320,2013-03-01 02:14:00
9:53 PM,35.1,30.9,85,29.97,10.0,NW,12.7,-,N/A,,Overcast,320,2013-03-01 02:53:00
10:10 PM,35.6,30.2,81,29.95,10.0,NNW,10.4,-,N/A,,Overcast,330,2013-03-01 03:10:00
10:17 PM,35.6,30.2,81,29.95,10.0,NNW,10.4,-,N/A,,Overcast,330,2013-03-01 03:17:00
11:53 PM,35.1,28.9,78,29.98,10.0,NNW,8.1,-,N/A,,Overcast,330,2013-03-01 04:53:00